User: anonymous   Login
Location: Indian Springs
(36.5700°N, 115.6700°W)
Time: 01:19:24
(UTC-07:00)
Language:

Cosmos 2278 Rocket - Orbit

View from above orbital plane
View from above orbital plane
View from above satellite
View from above satellite

Ground track
Ground track

The orbit data is extracted from the following two-line orbital elements,

1 23088U 94023B   15179.86561925  .00000244  00000-0  15190-3 0  9993
2 23088 071.0002 351.7795 0001685 142.1516 217.9725 14.14623571 93818
Epoch (UTC): 28 June 2015 20:46:29
Eccentricity: 0.0001685
inclination: 71.0002°
perigee height: 842 km
apogee height: 845 km
right ascension of ascending node: 351.7795°
argument of perigee: 142.1516°
revolutions per day: 14.14623571
mean anomaly at epoch: 217.9725°
orbit number at epoch: 9381

The dashed part of the orbit path shows where the satellite is in the earth's shadow,  

DLR